Location: ??
(35.4032°N, 139.3073°E)
Time: 22:25:35
(UTC+00:00)

YAOGAN 6 - Visible Passes

Search period start: 24 July 2024 00:00
Search period end: 03 August 2024 00:00
Orbit: 405 x 429 km, 97.2° (Epoch: 24 July)

Date Brightness Start Highest point End Pass type
(mag) Time Alt. Az. Time Alt. Az. Time Alt. Az.
24 Jul 4.9 17:37:07 10° NE 17:39:09 16° E 17:40:47 12° SE visible
24 Jul 4.0 19:08:51 10° NNW 19:11:09 18° WNW 19:13:27 10° WSW visible
25 Jul 2.2 18:23:04 10° NNE 18:26:16 86° E 18:28:13 22° S visible
26 Jul 4.9 17:38:56 10° NE 17:41:05 17° E 17:42:39 13° SE visible
26 Jul 4.0 19:10:50 10° NNW 19:13:04 17° WNW 19:15:16 10° WSW visible
27 Jul 2.2 18:24:52 10° N 18:28:05 88° WNW 18:29:58 23° SSW visible
28 Jul 4.8 17:40:33 10° NE 17:42:49 18° E 17:44:17 14° SE visible
28 Jul 4.1 19:12:37 10° NNW 19:14:45 17° WNW 19:16:53 10° WSW visible
29 Jul 2.1 18:26:28 10° N 18:29:41 83° WNW 18:31:29 24° SSW visible
30 Jul 4.7 17:41:59 10° NE 17:44:19 18° E 17:45:42 15° SE visible
30 Jul 4.2 19:14:11 10° NNW 19:16:14 16° WNW 19:18:18 10° WSW visible
31 Jul 2.1 18:27:51 10° N 18:31:04 79° WNW 18:32:47 25° SSW visible
01 Aug 4.7 17:43:12 10° NE 17:45:36 19° E 17:46:53 16° SE visible
01 Aug 4.2 19:15:30 10° NNW 19:17:30 15° WNW 19:19:30 10° WSW visible
02 Aug 2.2 18:29:01 10° N 18:32:14 76° WNW 18:33:51 27° SSW visible
